This is the latest recevied weather packets stored in our database for station/object LU3MCV-13. If no packets are shown the sender has not sent any weather packets the latest 10 day(s).
| Time | Temp. | Humidity | Pressure | Rain* | Wind** | Luminosity | Snow |
|---|---|---|---|---|---|---|---|
| 1777382780 | 15° C | 20% | 935.1 hPa | - | - | - | - |
| 1777381879 | 13.89° C | 22% | 935.2 hPa | - | - | - | - |
| 1777380979 | 13.89° C | 22% | 935.2 hPa | - | - | - | - |
| 1777380080 | 12.78° C | 23% | 935.2 hPa | - | - | - | - |
| 1777379180 | 12.22° C | 23% | 935.1 hPa | - | - | - | - |
| 1777378280 | 12.22° C | 23% | 935.1 hPa | - | - | - | - |
| 1777377380 | 12.22° C | 23% | 935 hPa | - | - | - | - |
| 1777376480 | 11.11° C | 23% | 935.1 hPa | - | - | - | - |
| 1777375580 | 11.11° C | 23% | 935 hPa | - | - | - | - |
| 1777374679 | 11.11° C | 24% | 935.1 hPa | - | - | - | - |
| 1777373780 | 11.11° C | 23% | 935.1 hPa | - | - | - | - |
| 1777372879 | 12.22° C | 23% | 935.2 hPa | - | - | - | - |
| 1777371979 | 12.22° C | 23% | 935.1 hPa | - | - | - | - |
| 1777371079 | 12.22° C | 23% | 935.1 hPa | - | - | - | - |
| 1777370179 | 12.22° C | 23% | 934.9 hPa | - | - | - | - |
| 1777369280 | 12.22° C | 23% | 935.1 hPa | - | - | - | - |
| 1777368379 | 12.22° C | 21% | 935.3 hPa | - | - | - | - |
| 1777367479 | 12.78° C | 20% | 935.2 hPa | - | - | - | - |
| 1777366579 | 12.78° C | 20% | 936.5 hPa | - | - | - | - |
| 1777365679 | 12.78° C | 20% | 936.5 hPa | - | - | - | - |
| 1777364779 | 12.78° C | 20% | 936.8 hPa | - | - | - | - |
| 1777363879 | 12.78° C | 20% | 936 hPa | - | - | - | - |
| 1777362979 | 12.78° C | 20% | 935.9 hPa | - | - | - | - |
| 1777362079 | 12.78° C | 20% | 935.6 hPa | - | - | - | - |
| 1777361179 | 13.89° C | 20% | 935.7 hPa | - | - | - | - |
* Rain since midnight (hover to see other rain measurements)
** Current wind speed in m/s (hover to see current wind gust speed)